Location: Cuzcurrita-R�o Tir�n
(42.5415°N, 2.9642°W)
Time: 02:09:37
(UTC+00:00)

SMAP - Pass Details

Date: 17 January 2021
Orbit: 681 x 683 km, 98.1° (Epoch: 08 March)

Event Time Altitude Azimuth Distance (km) Brightness Sun altitude
Rises 17:59:28 0° 179° (S) 3,029 6.6 -9.8°
Reaches altitude 10° 18:01:45 10° 185° (S) 2,119 5.9 -10.2°
Maximum altitude 18:06:14 49° 260° (W) 877 4.1 -11.0°
Drops below altitude 10° 18:10:47 10° 336° (NNW) 2,135 5.7 -11.7°
Sets 18:13:06 0° 342° (NNW) 3,055 6.4 -12.2°
